Location: Reichelsheim
(49.7121°N, 8.8390°E)
Time: 10:02:52
(UTC+00:00)

Daily predictions for brighter satellites

Satellite Brightness Start Highest point End
(mag) Time Altitude Azimuth Time Altitude Azimuth Time Altitude Azimuth
Okean O Rocket 2.1 19:35:00 10° SE 19:39:04 44° ENE 19:43:10 10° N
Cosmos 2100 Rocket 4.4 19:34:31 10° SSW 19:40:45 74° W 19:47:07 10° N
Meteor 1-27 4.2 19:36:34 10° S 19:42:10 72° E 19:47:45 10° NNE
Cosmos 2228 3.1 19:38:32 10° S 19:42:31 51° E 19:46:31 10° NNE
NOSS 3-4 (A) 4.4 19:36:42 10° NW 19:42:52 47° NE 19:50:06 10° ESE
SPOT 5 4.3 19:39:11 10° SSW 19:43:05 33° W 19:47:06 10° NNW
SL-24 R/B 4.3 19:38:50 10° NNE 19:43:08 83° WNW 19:47:52 10° SSW
SL-16 R/B 2.8 19:37:52 10° NNW 19:43:19 44° NE 19:48:43 10° SE
NOSS 3-4 (C) 4.4 19:37:19 10° NW 19:43:30 46° NE 19:50:45 10° ESE
USA 186 2.5 19:41:17 10° SE 19:43:41 29° ENE 19:46:09 10° N
Okean 1 Rocket 4.2 19:44:29 10° SSW 19:48:45 47° WNW 19:53:04 10° N
Cosmos 2084 Rocket 4.0 19:47:00 10° NW 19:51:06 52° SW 19:55:13 10° SSE
Cosmos 2233 Rocket 4.0 19:45:09 10° S 19:51:14 63° E 19:57:20 10° NNE
ATLAS 2AS CENTAUR R/B 4.3 19:45:56 10° W 19:52:18 38° NNW 19:58:36 10° NE
SKYMED 3 4.3 19:53:16 10° NNE 19:57:14 79° ESE 20:01:13 10° S
CZ-2C R/B 4.4 19:56:27 10° E 19:57:26 11° ENE 19:58:24 10° NE
COSMOS 2406 3.6 19:53:03 10° S 19:58:25 42° ESE 20:03:48 10° NE
Cosmos 1980 Rocket 3.3 19:53:31 10° NW 19:58:50 41° WSW 20:04:04 10° S
Okean-O 2.7 19:55:30 10° SSE 19:59:50 68° ENE 20:04:13 10° N
Cosmos 1782 2.6 19:56:25 10° SSW 19:59:55 80° W 20:03:28 10° N
CZ-4 R/B 3.0 19:57:11 10° SSW 20:00:21 28° W 20:03:33 10° NW
Ariane Rocket 3.9 19:58:02 10° SE 20:02:33 34° ENE 20:07:06 10° N
Cosmos 1933 4.3 20:02:11 11° SSE 20:05:15 27° E 20:08:31 10° NNE
SPOT 3 Rocket 4.0 20:01:10 10° SE 20:05:57 46° ENE 20:10:50 10° N
Cosmos 1758 Rocket 3.8 20:02:10 10° N 20:06:31 54° ENE 20:10:37 11° SSE
Spot 2 Rocket 3.5 20:02:48 10° SSE 20:07:49 88° ENE 20:12:53 10° NNW
Cosmos 1725 Rocket 4.3 20:03:44 10° SSW 20:09:59 71° WNW 20:16:13 10° N
Cosmos 2333 Rocket 2.5 20:05:34 10° NNW 20:11:14 61° ENE 20:16:16 13° SE
ERS-1 Rocket 4.1 20:09:17 10° SSW 20:14:00 42° W 20:18:46 10° NNW
Tsikada Rocket 4.2 20:12:08 10° NNW 20:18:18 76° W 20:24:26 10° S
Cosmos 2360 Rocket 2.8 20:19:36 10° NNW 20:25:07 48° NE 20:29:39 15° SE
USA 245 4.3 20:19:40 12° SSE 20:25:07 71° ENE 20:30:38 10° N
Cosmos 1461 2.7 20:22:45 10° SSW 20:26:20 49° ESE 20:29:55 10° NE
CZ-4B R/B 4.3 20:21:43 10° S 20:27:05 43° W 20:32:26 10° NNW
CZ-4B R/B 3.6 20:25:36 15° SE 20:29:23 57° ENE 20:34:09 10° N
CZ-4C R/B 3.7 20:26:09 10° W 20:30:23 36° NNW 20:35:48 10° NE
Cosmos 1602 Rocket 3.8 20:26:29 10° N 20:30:44 55° ENE 20:33:50 18° SSE
Cosmos 1992 Rocket 4.0 20:25:47 10° SSW 20:30:59 85° WNW 20:36:14 10° NNE
YAOGAN 11 4.2 20:29:29 10° NNE 20:33:57 86° WNW 20:38:25 10° SSW
ISS -3.2 20:33:58 10° W 20:37:18 60° N 20:40:37 10° ENE
Cosmos 1777 Rocket 4.3 20:32:17 10° NNW 20:37:28 56° ENE 20:41:09 18° SE
Cosmos 2219 Rocket 3.0 20:33:08 10° NNW 20:38:29 40° NE 20:42:48 15° ESE
Meteor 1-25 Rocket 4.2 20:33:42 10° N 20:39:23 73° ENE 20:43:46 17° SSE
Cosmos 220 Rocket 4.1 20:36:01 12° S 20:39:35 48° ESE 20:43:32 10° NNE
Cosmos 1437 Rocket 2.4 20:36:40 13° S 20:39:48 72° E 20:43:23 10° NNE
USA 290 3.6 20:39:46 20° ESE 20:39:54 20° ESE 20:42:17 10° NE
SL-08 R/B 4.3 20:39:30 10° N 20:44:10 50° WNW 20:48:44 10° SW
Cosmos 1503 Rocket 4.4 20:40:53 10° NNW 20:45:58 51° ENE 20:49:23 20° SE
DEBRIS 3.6 20:43:47 10° W 20:47:02 87° S 20:57:29 10° E
Cosmos 1626 Rocket 4.1 20:42:48 10° NNW 20:47:04 55° W 20:51:00 12° S
Cosmos 2098 Rocket 3.4 20:44:23 18° SSE 20:47:42 50° E 20:51:45 10° NNE
Cosmos 1076 Rocket 4.5 20:45:28 10° N 20:49:21 33° ENE 20:51:27 21° ESE
NOSS 3-3 (A) 4.2 20:44:23 10° SW 20:49:37 67° NW 20:56:01 10° NE
Terra 4.0 20:48:18 10° SW 20:51:51 21° W 20:55:25 10° NW
Cosmos 2151 3.3 20:51:02 10° NNW 20:55:05 59° W 20:58:09 17° S
Cosmos 2322 Rocket 2.2 20:51:19 10° NNW 20:57:01 82° ENE 21:00:46 22° SSE
Cosmos 1486 Rocket 4.0 20:51:50 10° NNW 20:57:08 87° ENE 21:00:35 22° SSE
Cosmos 1513 Rocket 4.4 20:51:13 10° S 20:57:25 83° E 21:03:35 10° N
IRS-1C Rocket 4.1 20:53:40 19° SSE 20:57:33 87° WSW 21:02:52 10° NNW
Cosmos 1464 Rocket 4.1 20:53:50 17° SSE 20:58:35 60° E 21:04:40 10° NNE
Cosmos 2082 Rocket 3.6 20:56:13 10° WSW 21:01:35 41° NW 21:06:59 10° NNE
USA 306 3.6 21:01:20 10° WNW 21:03:37 23° NNW 21:04:50 13° NE
Meteor 2-10 4.2 20:59:46 10° N 21:05:32 78° ENE 21:09:14 23° SSE
Cosmos 1606 Rocket 3.6 21:03:17 25° SSE 21:05:37 56° E 21:09:51 10° NNE
CZ-4B R/B 3.5 21:09:42 20° SSW 21:11:38 40° W 21:14:56 10° NNW
Cosmos 1766 4.2 21:09:42 10° NNE 21:12:25 24° ENE 21:13:02 23° E
USA 186 4.2 21:11:43 10° WSW 21:13:09 13° W 21:14:35 10° WNW
Cosmos 1726 Rocket 3.7 21:12:34 31° SSE 21:14:06 48° E 21:18:01 10° NNE
Cosmos 2237 Rocket 4.4 21:10:41 10° N 21:14:29 18° NE 21:18:15 10° ENE
Cosmos 1428 Rocket 4.5 21:08:59 10° N 21:15:15 78° E 21:19:09 24° SSE
Okean O Rocket 3.6 21:12:05 10° SW 21:15:27 22° W 21:18:51 10° NW
Cosmos 540 Rocket 3.9 21:13:17 26° SSE 21:15:39 42° ESE 21:20:30 10° NE
Cosmos 1072 Rocket 4.5 21:11:32 15° S 21:16:47 86° E 21:23:12 10° N
Cosmos 1092 Rocket 4.5 21:11:04 10° N 21:17:01 47° ENE 21:20:29 24° SE
Aureole 1 Rocket 4.5 21:13:00 10° NNW 21:18:30 49° ENE 21:22:39 22° SE
Cosmos 1805 3.4 21:17:54 10° NNW 21:21:05 50° W 21:22:21 30° SSW
Cosmos 2278 4.3 21:17:24 10° NW 21:22:55 50° WSW 21:26:23 22° S
Meteor 1-5 Rocket 4.4 21:19:49 10° NNW 21:25:33 71° W 21:29:21 23° S
COSMOS 2428 3.9 21:21:05 10° NNW 21:26:16 34° NE 21:30:13 16° ESE
SL-16 R/B 3.2 21:22:08 10° NW 21:27:19 37° WSW 21:30:55 18° SSW
CZ-2C R/B 2.9 21:27:14 33° SW 21:27:50 38° W 21:30:29 10° NNW
Okean 1-7 Rocket 3.8 21:23:47 10° NNW 21:28:13 66° W 21:30:35 27° S
Geosat 4.3 21:28:25 10° NE 21:33:14 45° ESE 21:35:08 31° SSE
NOSS 3-4 (A) 4.1 21:27:26 10° NW 21:34:05 61° SW 21:38:39 26° SSE
NOSS 3-4 (C) 4.1 21:28:04 10° NW 21:34:44 61° SW 21:39:17 26° SSE
Cosmos-2242 3.3 21:34:03 37° SE 21:35:05 46° E 21:39:02 10° NNE
Cosmos 2034 Rocket 4.0 21:32:54 24° S 21:36:59 77° E 21:43:20 10° NNE
Ariane Rocket 4.0 21:38:06 18° SSW 21:41:22 38° W 21:46:06 10° NNW
USA 234 4.3 21:42:15 10° ENE 21:47:11 23° SE 21:47:11 23° SE
TSX-5 4.1 21:46:29 10° NNW 21:49:29 41° NE 21:50:06 37° E
Nadezhda 4 Rocket 4.5 21:46:24 10° NNW 21:52:20 53° W 21:56:13 22° SSW
Cosmos 2333 Rocket 3.7 21:50:28 10° NW 21:55:07 26° WSW 21:58:17 16° SSW
Helios 1B rocket 2.1 21:55:11 52° ESE 21:55:42 59° ENE 21:59:10 10° N
Cosmos 2279 Rocket 4.5 21:53:17 30° SE 21:55:52 45° E 22:01:47 10° NNE
Cosmos 1763 Rocket 3.5 21:53:12 22° SSW 21:56:44 83° WNW 22:02:03 10° NNE
Okean 1 3.9 21:56:18 27° SW 21:57:46 44° WNW 22:01:15 10° N
Cosmos 1470 3.4 21:55:01 10° N 21:58:03 32° ENE 21:58:12 32° E
Cosmos 1536 2.5 21:54:55 10° N 21:58:37 73° E 21:59:12 58° SE
Cosmos 2221 3.7 21:59:07 26° E 21:59:32 26° E 22:03:03 10° NNE
Cosmos 1707 2.1 21:59:51 68° NNE 21:59:51 68° NNE 22:02:23 10° N
Cosmos 1898 Rocket 4.0 21:54:41 10° NNW 21:59:45 51° ENE 22:02:03 30° ESE
Cosmos 1634 Rocket 4.0 21:57:45 32° SSE 22:00:39 67° E 22:06:49 10° NNE
CSL-04 DEB 4.2 22:01:35 52° ESE 22:02:08 61° ENE 22:05:44 10° N
Cosmos 1833 4.2 21:57:58 18° SSW 22:02:16 84° WNW 22:07:56 10° NNE
Cosmos 2297 Rocket 3.8 22:01:44 17° ESE 22:02:18 18° E 22:05:56 10° ENE
Cosmos 1953 Rocket 3.9 21:59:14 10° NNW 22:03:30 57° W 22:04:56 37° SSW
CZ-2C R/B 4.3 21:59:20 10° NNE 22:03:30 38° E 22:04:14 35° ESE
Cosmos 44 3.4 21:59:29 10° NW 22:04:55 82° SW 22:06:56 39° SSE
Cosmos 990 Rocket 4.3 21:59:52 10° NNW 22:04:55 55° WSW 22:06:54 34° SSW
Cosmos 2360 Rocket 3.3 22:03:53 10° NW 22:08:56 34° WSW 22:11:23 24° SSW
Meteor 2-6 Rocket 4.5 22:08:15 35° SSE 22:10:39 61° E 22:16:32 10° NNE
Cosmos 2322 3.8 22:05:31 10° NNW 22:11:13 70° ENE 22:13:46 34° SE
USA 290 4.1 22:12:10 17° WSW 22:13:52 27° WNW 22:16:37 10° N
ISS -3.9 22:10:54 10° WNW 22:14:15 86° NNE 22:14:19 84° ENE
Cosmos 2026 Rocket 4.3 22:08:42 10° NNW 22:15:00 63° W 22:18:17 29° SSW
BREEZE-M DEB (TANK) 4.1 22:13:07 10° W 22:13:11 11° W 22:13:11 11° W
Cosmos 2058 Rocket 3.0 22:14:25 44° SSW 22:15:44 80° WNW 22:20:05 10° N
GP-B 4.5 22:14:23 10° NNE 22:18:01 25° E 22:18:52 23° E
Helios 1A 3.1 22:17:27 10° N 22:21:20 61° WNW 22:22:30 40° SW
Cosmos 2219 Rocket 2.9 22:17:09 10° NW 22:22:26 42° WSW 22:24:29 30° SSW
Cosmos 2266 Rocket 4.5 22:18:21 10° N 22:24:10 47° ENE 22:26:50 30° SE
Cosmos 1975 2.8 22:21:31 10° N 22:25:09 55° ENE 22:25:24 53° E
KORONAS-FOTON 3.5 22:25:06 70° WSW 22:25:14 72° WNW 22:28:38 10° N
Cosmos 841 Rocket 3.7 22:28:15 43° SSE 22:29:26 51° ESE 22:34:30 10° NNE
RESURS DK-1 2.1 22:28:04 10° NNW 22:32:04 85° ENE 22:32:35 66° SE
ARIANE 5 R/B 2.6 22:32:16 53° SSE 22:33:18 82° ENE 22:37:47 10° NNW
ALOS 2 2.6 22:33:58 50° SE 22:34:58 70° ENE 22:39:22 10° N
Cosmos 2322 Rocket 4.0 22:36:32 10° WNW 22:40:21 19° W 22:42:34 15° SW
Cosmos 1271 Rocket 2.5 22:46:13 67° WNW 22:46:13 67° WNW 22:49:35 10° N
Cosmos 372 Rocket 4.3 22:41:40 10° NNW 22:46:38 53° WSW 22:47:53 42° SSW
SL-16 R/B 4.3 22:42:38 10° NNW 22:47:06 23° NE 22:51:32 10° E
Cosmos 1842 3.4 22:47:39 48° WNW 22:47:39 48° WNW 22:50:35 10° N
Lacrosse 4 Rocket 3.2 22:51:57 18° E 22:51:57 18° E 22:53:59 10° ENE
Spot 4 3.9 22:51:57 50° SSW 22:53:05 68° WSW 22:57:53 10° NNW
Meteor 2-9 Rocket 4.2 22:48:49 10° NNW 22:54:12 71° W 22:55:56 44° SSW
PSLV R/B 3.5 22:51:04 10° NNE 22:55:21 69° ESE 22:55:59 59° SSE
Cosmos 2237 Rocket 2.4 22:54:01 10° NNW 22:59:41 65° ENE 23:02:17 32° SE
CZ-2C R/B 3.1 22:58:57 32° SE 23:01:05 51° ENE 23:06:07 10° N
BREEZE-M DEB (TANK) 4.0 22:46:34 10° WSW 23:01:43 86° SSE 23:05:29 10° ENE
Cosmos 1980 3.8 22:58:11 10° NNW 23:03:51 74° ENE 23:06:13 36° SE
ARGOS Delta rocket 4.0 22:59:37 10° N 23:04:47 83° WNW 23:06:31 44° SSW
Cosmos 858 Rocket 4.4 23:00:01 10° NNW 23:05:13 88° ENE 23:06:42 48° SSE
Cosmos 2142 Rocket 4.5 23:05:16 38° SSW 23:07:54 79° W 23:14:10 10° N
Cosmos 1937 Rocket 3.5 23:03:12 10° NNW 23:08:17 63° WSW 23:09:27 49° SSW
Cosmos 2180 Rocket 4.5 23:06:36 38° SSW 23:09:12 81° W 23:15:35 10° N
COSMOS 2428 3.0 23:05:13 10° NW 23:10:43 52° WSW 23:12:11 41° SSW
Cosmos 2227 Rocket 3.4 23:11:04 24° ESE 23:12:09 26° ESE 23:16:46 10° NE
Meteor 2-4 Rocket 4.2 23:11:49 37° SE 23:13:21 46° E 23:18:36 10° NNE
NOSS 0 Rocket 4.0 23:07:19 10° NW 23:13:25 65° WSW 23:15:26 42° S
Meteor 1-11 Rocket 3.7 23:08:21 10° NNW 23:14:01 75° W 23:15:45 45° S
MetOp-A 3.7 23:18:10 53° S 23:19:22 86° WSW 23:24:04 10° NNW
Meteor 1-10 Rocket 4.3 23:17:23 41° SSW 23:19:35 82° WNW 23:25:35 10° N
Cosmos 2263 Rocket 3.8 23:20:54 19° ESE 23:22:08 20° E 23:26:03 10° NE
Cosmos 1812 Rocket 3.9 23:25:18 46° WSW 23:26:14 56° WNW 23:30:35 10° N
Cosmos 1238 Rocket 2.9 23:25:54 59° ESE 23:26:14 62° E 23:30:32 10° NNE
USA 234 3.2 23:24:29 10° ENE 23:31:02 70° SE 23:34:29 30° SW
SeaSat 1 3.0 23:28:37 25° ESE 23:31:17 54° NE 23:36:04 10° NNW
CZ-2C R/B 3.3 23:27:55 10° NNE 23:33:43 87° ESE 23:35:48 43° SSW
Meteor 1-27 Rocket 3.7 23:32:34 43° S 23:34:35 88° ESE 23:40:22 10° NNE
ACS3 Solar Sail 2.7 23:29:28 10° NNE 23:34:56 36° E 23:37:20 26° SE
Cosmos 2221 3.7 23:35:23 28° W 23:36:26 32° WNW 23:40:14 10° N
ATLAS 2AS CENTAUR R/B 4.2 23:31:47 10° NW 23:37:57 35° NNE 23:44:06 10° E
Meteor 2-20 Rocket 4.2 23:37:28 44° S 23:39:25 83° E 23:45:09 10° NNE
BlueWalker 3 3.4 23:41:18 23° E 23:41:18 23° E 23:42:57 10° ENE
Cosmos 2297 Rocket 2.1 23:43:29 41° SSW 23:45:35 85° WNW 23:51:17 10° NNE
Okean 3 Rocket 4.3 23:43:29 10° N 23:47:53 49° ENE 23:49:21 35° SE
Landsat 5 3.3 23:47:10 10° NNE 23:51:15 68° ESE 23:51:40 62° SE
Cosmos 1842 Rocket 3.6 23:53:33 55° SSE 23:54:21 69° E 23:58:45 10° NNE
GP-B 3.9 23:51:06 10° NNW 23:55:09 37° W 23:56:01 34° WSW
